Location: Niedergestelen
(46.3129°N, 7.7822°E)
Time: 04:59:12
(UTC+00:00)

Meteor 1-25 Rocket - Pass Details

Date: 01 December 2020
Orbit: 838 x 890 km, 81.2° (Epoch: 18 January)

Event Time Altitude Azimuth Distance (km) Brightness Sun altitude
Rises 16:30:43 0° 351° (N) 3,425 7.2 -8.0°
Reaches altitude 10° 16:33:10 10° 354° (N) 2,491 6.5 -8.4°
Maximum altitude 16:38:47 65° 76° (ENE) 944 4.2 -9.2°
Drops below altitude 10° 16:44:27 10° 159° (SSE) 2,510 6.7 -10.2°
Sets 16:46:55 0° 162° (SSE) 3,451 7.4 -10.6°
